Simultaneous Nadir Overpasses (SNOs) Predictions

Prediction of SNOs between GOES-14 and NOAA-20 Satellite Orbit:

Table of predicted SNOs for the next 14.0 days since TLE Epoch: 1/10/2020
Index Date Time (GOES-14) GOES-14 Lat,Lon NOAA-20 Lat,Lon Distance(km) Time Diff (sec)
1 01/10/2020 20:04:39 -0.00,-104.05 0.94, -99.75 489.39 80
2 01/12/2020 08:26:29 -0.00,-104.31 0.14,-105.04 83.24 80
3 01/13/2020 08:05:04 0.00,-104.30 -0.84,-100.50 432.83 80
4 01/14/2020 20:27:02 0.01,-104.04 -0.36,-105.81 200.58 80
5 01/15/2020 20:10:57 0.00,-104.04 0.62,-101.27 315.95 80
6 01/17/2020 08:32:46 -0.01,-104.31 0.52,-106.55 255.77 80
7 01/18/2020 08:11:23 -0.01,-104.31 -0.52,-102.03 260.62 80
8 01/19/2020 20:33:19 0.01,-104.05 -0.74,-107.32 372.95 80
9 01/20/2020 20:17:16 -0.00,-104.05 0.31,-102.79 143.63 80
10 01/22/2020 08:36:25 0.00,-104.32 0.84,-108.07 427.67 80
11 01/23/2020 08:17:41 0.01,-104.32 -0.14,-103.53 88.86 80




NCC Satellite Simultaneous Nadir Overpasses (SNOs) Prediction Service
